Terminal Aerodrome Forecast
Issued by NWS

Home | Current Version | Previous Version | Graphics & Text | Print | Product List | Glossary On
Versions: 1 2 3 4 5 6 7 8 9 10 11 12 13 14 15 16 17 18 19 20
000
FTUS42 KMHX 192000 AAA
TAFOAJ
TAF AMD
KOAJ 192040Z 1921/2018 25008KT P6SM VCTS BKN035CB
     FM200200 29004KT P6SM SCT040 BKN100
     FM200800 35003KT 4SM BR SCT007 BKN100
     FM201300 01005KT P6SM SCT040
      AMD LTD TO CLD VIS AND WIND=

USA.gov is the U.S. government's official web portal to all federal, state and local government web resources and services.